Home   Weather   Kenora   Past weeks

Flag for Canada Past Weather in Kenora, Ontario, Canada — Yesterday and Last 2 Weeks

Now
68 °F

Broken clouds.


Feels Like: 68 °F
Forecast: 61 / 73 °F
Wind: 6 mph from North

Location: Kenora

Current Time: Aug 17, 2017 at 12:48:13 pm

Latest Report: Aug 17, 2017 at 12:00 pm


Visibility: 15 mi

Pressure: 29.83 "Hg

Humidity: 64%

Dew Point: 55 °F

Location of KenoraLocation

Past Weather in Kenora — Graph

°F

Kenora Temperature Yesterday

Maximum temperature yesterday: 70 °F (at 12:00 am)
Minimum temperature yesterday: 63 °F (at 12:00 pm)
Average temperature yesterday: 64 °F

High & Low Weather Summary for the Past Weeks

 TemperatureHumidityPressure
High81 °F (Aug 7, 3:00 pm)100% (Aug 5, 6:00 am)30.22 "Hg (Aug 5, 6:00 am)
Low54 °F (Aug 3, 6:00 am)30% (Aug 7, 3:00 pm)29.84 "Hg (Aug 17, 11:00 am)
Average66 °F67%30.04 "Hg
* Reported Aug 2 11:00 am — Aug 17 11:00 am, Kenora. Weather by CustomWeather, © 2017

Note: Actual official high and low records may vary slightly from our data, if they occured in-between our weather recording intervals... More about our weather records

Advertising

Kenora Weather History for the Previous 24 Hours

Scroll right to see more
 ConditionsComfort  
Time TempWeatherWind HumidityBarometerVisibility
11:00 am
Thu, Aug 17
66 °FBroken clouds.7 mph68%29.84 "Hg12 mi
10:00 am63 °FPartly sunny.7 mph77%29.85 "Hg15 mi
9:00 am61 °FBroken clouds.3 mph88%29.85 "Hg12 mi
8:00 am61 °FBroken clouds.3 mph83%29.85 "Hg12 mi
7:00 am59 °FBroken clouds.3 mph88%29.85 "Hg15 mi
6:00 am59 °FOvercast.3 mph88%29.85 "Hg15 mi
5:00 am61 °FOvercast.6 mph83%29.85 "Hg15 mi
4:00 am61 °FMostly cloudy.5 mph83%29.85 "Hg15 mi
3:00 am61 °FMostly cloudy.6 mph83%29.86 "Hg15 mi
2:00 am61 °FMostly cloudy.5 mph83%29.88 "Hg15 mi
1:00 am61 °FMostly cloudy.5 mph77%29.88 "Hg15 mi
12:00 am61 °FMostly cloudy.6 mph83%29.89 "Hg15 mi
11:00 pm
Wed, Aug 16
63 °FOvercast.7 mph83%29.89 "Hg15 mi
10:00 pm63 °FPartly cloudy.5 mph88%29.90 "Hg15 mi
9:00 pm63 °FPartly cloudy.6 mph88%29.91 "Hg12 mi
8:00 pm63 °FMostly cloudy.6 mph88%29.91 "Hg12 mi
6:00 pm64 °FMore clouds than sun.7 mph88%29.93 "Hg10 mi
5:00 pm66 °FMore clouds than sun.9 mph83%29.93 "Hg10 mi
4:00 pm66 °FLow clouds.6 mph83%29.93 "Hg10 mi
3:00 pm64 °FLow clouds.8 mph88%29.93 "Hg10 mi
2:29 pm63 °FFog.8 mph94%29.94 "Hg6 mi
2:00 pm63 °FLight rain. Cloudy.5 mph94%29.96 "Hg5 mi
1:00 pm63 °FLight rain. Cloudy.7 mph94%29.96 "Hg5 mi
12:00 pm63 °FLight rain. Mostly cloudy.8 mph94%29.97 "Hg4 mi
Weather by CustomWeather, © 2017

See weather overviewHow to use our weather pages